When you browse on this site, cookies collect data to enhance your experience and personalize the content and advertising you see.
Visit our Privacy Policy to learn more. By continuing to use the site, you agree to this use of cookies and data.
  • Em Portugal
  • Lista de países
  • Para 7 dias
  • Temperatura da água
  • Mapas de satélite
  • Mapa do tempo
  • Widgets de tempo
  • user-avatar
    Iniciar Sessão

    Previsão horária em Volodarskoe

    Hoje, 17 Fevereiro, Domingo

    Tempo Temperatura Precipitação Vento Pressão Humidade
    00:00 +1°C° 0 mm 2 m/s 756 mmHg 90%
    01:00 +1°C° 0 mm 2 m/s 756 mmHg 90%
    02:00 +1°C° 0 mm 2 m/s 756 mmHg 90%
    03:00 0°C° 0 mm 3 m/s 755 mmHg 90%
    04:00 0°C° 0 mm 3 m/s 755 mmHg 90%
    05:00 0°C° 0 mm 3 m/s 755 mmHg 89%
    06:00 -1°C° 0 mm 4 m/s 755 mmHg 89%
    07:00 -1°C° 0 mm 4 m/s 754 mmHg 88%
    08:00 -1°C° 0 mm 5 m/s 754 mmHg 87%
    09:00 0°C° 0 mm 5 m/s 754 mmHg 84%
    10:00 +2°C° 0 mm 5 m/s 754 mmHg 80%
    11:00 +3°C° 0 mm 6 m/s 753 mmHg 76%
    12:00 +4°C° 0 mm 6 m/s 753 mmHg 72%
    13:00 +5°C° 0 mm 7 m/s 752 mmHg 68%
    14:00 +8°C° 0 mm 7 m/s 752 mmHg 64%
    15:00 +6°C° 0 mm 7 m/s 751 mmHg 65%
    16:00 +7°C° 0 mm 6 m/s 751 mmHg 66%
    17:00 +5°C° 0 mm 6 m/s 750 mmHg 67%
    18:00 +5°C° 0 mm 6 m/s 750 mmHg 68%
    19:00 +4°C° 0 mm 7 m/s 750 mmHg 70%
    20:00 +4°C° 0 mm 7 m/s 750 mmHg 71%
    21:00 +3°C° 0 mm 6 m/s 750 mmHg 74%
    22:00 +2°C° 0 mm 6 m/s 750 mmHg 78%
    23:00 +1°C° 0 mm 6 m/s 750 mmHg 82%

    Amanhã, 18 Fevereiro, Segunda-feira

    Tempo Temperatura Precipitação Vento Pressão Humidade
    00:00 +1°C° 0 mm 6 m/s 750 mmHg 81%
    01:00 +1°C° 0 mm 6 m/s 750 mmHg 80%
    02:00 +1°C° 0 mm 5 m/s 751 mmHg 79%
    03:00 0°C° 0 mm 5 m/s 751 mmHg 80%
    04:00 0°C° 0 mm 5 m/s 751 mmHg 81%
    05:00 -1°C° 0 mm 5 m/s 751 mmHg 81%
    06:00 -1°C° 0 mm 5 m/s 751 mmHg 78%
    07:00 -2°C° 0 mm 6 m/s 752 mmHg 75%
    08:00 -2°C° 0 mm 6 m/s 752 mmHg 72%
    09:00 -1°C° 0 mm 6 m/s 753 mmHg 68%
    10:00 -1°C° 0 mm 6 m/s 753 mmHg 64%
    11:00 +1°C° 0 mm 6 m/s 753 mmHg 59%
    12:00 +1°C° 0 mm 6 m/s 753 mmHg 57%
    13:00 +2°C° 0 mm 6 m/s 753 mmHg 55%
    14:00 +2°C° 0 mm 6 m/s 753 mmHg 53%
    15:00 +1°C° 0 mm 6 m/s 754 mmHg 56%
    16:00 +1°C° 0 mm 5 m/s 754 mmHg 59%
    17:00 0°C° 0 mm 5 m/s 754 mmHg 62%
    18:00 -1°C° 0 mm 5 m/s 755 mmHg 64%
    19:00 -2°C° 0 mm 5 m/s 755 mmHg 67%
    20:00 -4°C° 0 mm 5 m/s 756 mmHg 70%
    21:00 -4°C° 0 mm 5 m/s 756 mmHg 68%
    22:00 -3°C° 0 mm 4 m/s 757 mmHg 66%
    23:00 -3°C° 0 mm 4 m/s 757 mmHg 64%

    Depois de amanhã, 19 Fevereiro, Terça-feira

    Tempo Temperatura Precipitação Vento Pressão Humidade
    00:00 -3°C° 0 mm 4 m/s 758 mmHg 64%
    01:00 -4°C° 0 mm 4 m/s 758 mmHg 63%
    02:00 -4°C° 0 mm 4 m/s 758 mmHg 63%
    03:00 -4°C° 0 mm 3 m/s 758 mmHg 62%
    04:00 -4°C° 0 mm 3 m/s 759 mmHg 62%
    05:00 -5°C° 0 mm 3 m/s 759 mmHg 62%
    06:00 -4°C° 0 mm 3 m/s 759 mmHg 60%
    07:00 -4°C° 0 mm 3 m/s 760 mmHg 59%
    08:00 -4°C° 0 mm 3 m/s 760 mmHg 58%
    09:00 -4°C° 0 mm 3 m/s 761 mmHg 54%
    10:00 -2°C° 0 mm 3 m/s 761 mmHg 51%
    11:00 -1°C° 0 mm 2 m/s 761 mmHg 47%
    12:00 -1°C° 0 mm 2 m/s 761 mmHg 45%
    13:00 +1°C° 0 mm 2 m/s 761 mmHg 44%
    14:00 +2°C° 0 mm 1 m/s 761 mmHg 42%
    15:00 +2°C° 0 mm 1 m/s 761 mmHg 46%
    16:00 -1°C° 0 mm 2 m/s 761 mmHg 49%
    17:00 -1°C° 0 mm 2 m/s 761 mmHg 53%
    18:00 -2°C° 0 mm 2 m/s 761 mmHg 55%
    19:00 -2°C° 0 mm 2 m/s 761 mmHg 58%
    20:00 -3°C° 0 mm 2 m/s 761 mmHg 60%
    21:00 -3°C° 0 mm 2 m/s 761 mmHg 61%
    22:00 -3°C° 0 mm 2 m/s 761 mmHg 61%
    23:00 -3°C° 0 mm 2 m/s 761 mmHg 61%

    20 Fevereiro, Quarta-feira

    Tempo Temperatura Precipitação Vento Pressão Humidade
    00:00 -3°C° 0 mm 2 m/s 760 mmHg 62%
    01:00 -3°C° 0 mm 2 m/s 760 mmHg 62%
    02:00 -3°C° 0 mm 2 m/s 760 mmHg 63%
    03:00 -3°C° 0 mm 2 m/s 759 mmHg 64%
    04:00 -3°C° 0 mm 2 m/s 759 mmHg 66%
    05:00 -3°C° 0 mm 2 m/s 759 mmHg 67%
    06:00 -3°C° 0 mm 2 m/s 758 mmHg 66%
    07:00 -2°C° 0 mm 3 m/s 758 mmHg 64%
    08:00 -2°C° 0 mm 3 m/s 758 mmHg 63%
    09:00 -1°C° 0 mm 3 m/s 758 mmHg 60%
    10:00 0°C° 0 mm 3 m/s 758 mmHg 57%
    11:00 0°C° 0 mm 4 m/s 757 mmHg 54%
    12:00 0°C° 0 mm 4 m/s 757 mmHg 54%
    13:00 +1°C° 0 mm 4 m/s 756 mmHg 54%
    14:00 +1°C° 0 mm 4 m/s 756 mmHg 54%
    15:00 0°C° 0 mm 4 m/s 756 mmHg 59%
    16:00 0°C° 0 mm 4 m/s 755 mmHg 63%
    17:00 0°C° 0 mm 3 m/s 755 mmHg 67%
    18:00 -1°C° 0 mm 4 m/s 755 mmHg 71%
    19:00 -1°C° 0 mm 4 m/s 755 mmHg 74%
    20:00 -1°C° 0 mm 4 m/s 755 mmHg 78%
    21:00 -1°C° 0 mm 4 m/s 755 mmHg 78%
    22:00 0°C° 0 mm 4 m/s 755 mmHg 78%
    23:00 0°C° 0 mm 5 m/s 754 mmHg 79%

    21 Fevereiro, Quinta-feira

    Tempo Temperatura Precipitação Vento Pressão Humidade
    00:00 0°C° 0 mm 5 m/s 754 mmHg 81%
    01:00 0°C° 0 mm 5 m/s 754 mmHg 84%
    02:00 0°C° 0 mm 5 m/s 754 mmHg 87%
    03:00 0°C° 0 mm 4 m/s 753 mmHg 90%
    04:00 +1°C° 0 mm 4 m/s 753 mmHg 92%
    05:00 +1°C° 0 mm 4 m/s 753 mmHg 95%
    06:00 +1°C° 0 mm 5 m/s 753 mmHg 91%
    07:00 +1°C° 0 mm 5 m/s 753 mmHg 86%
    08:00 +1°C° 0 mm 5 m/s 753 mmHg 82%
    09:00 +2°C° 0 mm 5 m/s 753 mmHg 73%
    10:00 +3°C° 0 mm 6 m/s 753 mmHg 63%
    11:00 +4°C° 0 mm 6 m/s 753 mmHg 54%
    12:00 +4°C° 0 mm 6 m/s 753 mmHg 53%
    13:00 +4°C° 0 mm 7 m/s 753 mmHg 52%
    14:00 +4°C° 0 mm 7 m/s 752 mmHg 51%
    15:00 +4°C° 0 mm 6 m/s 752 mmHg 54%
    16:00 +3°C° 0 mm 6 m/s 752 mmHg 56%
    17:00 +3°C° 0 mm 6 m/s 752 mmHg 58%
    18:00 +3°C° 0 mm 6 m/s 752 mmHg 61%
    19:00 +2°C° 0 mm 6 m/s 752 mmHg 63%
    20:00 +2°C° 0 mm 6 m/s 752 mmHg 65%
    21:00 +1°C° 0.1 mm 6 m/s 753 mmHg 66%
    22:00 +1°C° 0.1 mm 6 m/s 753 mmHg 68%
    23:00 -1°C° 0.1 mm 6 m/s 753 mmHg 69%

    22 Fevereiro, Sexta-feira

    Tempo Temperatura Precipitação Vento Pressão Humidade
    00:00 -2°C° 0 mm 6 m/s 754 mmHg 69%
    01:00 -2°C° 0 mm 5 m/s 754 mmHg 69%
    02:00 -3°C° 0 mm 4 m/s 755 mmHg 69%
    03:00 -4°C° 0 mm 4 m/s 755 mmHg 65%
    04:00 -4°C° 0 mm 4 m/s 755 mmHg 61%
    05:00 -4°C° 0 mm 4 m/s 755 mmHg 58%
    06:00 -4°C° 0 mm 3 m/s 756 mmHg 54%
    07:00 -4°C° 0 mm 3 m/s 756 mmHg 50%
    08:00 -3°C° 0 mm 2 m/s 756 mmHg 47%
    09:00 -3°C° 0 mm 2 m/s 756 mmHg 43%
    10:00 0°C° 0 mm 1 m/s 756 mmHg 39%
    11:00 +1°C° 0 mm 1 m/s 756 mmHg 36%
    12:00 +1°C° 0 mm 1 m/s 756 mmHg 36%
    13:00 +1°C° 0 mm 1 m/s 756 mmHg 36%
    14:00 +1°C° 0 mm 2 m/s 755 mmHg 35%
    15:00 +1°C° 0 mm 2 m/s 755 mmHg 39%
    16:00 +2°C° 0 mm 1 m/s 755 mmHg 43%
    17:00 +1°C° 0 mm 1 m/s 755 mmHg 46%
    18:00 +1°C° 0 mm 1 m/s 755 mmHg 49%
    19:00 +1°C° 0 mm 1 m/s 756 mmHg 52%
    20:00 +1°C° 0 mm 1 m/s 756 mmHg 55%
    21:00 -2°C° 0 mm 2 m/s 756 mmHg 56%
    22:00 -2°C° 0 mm 3 m/s 756 mmHg 57%
    23:00 -3°C° 0 mm 4 m/s 756 mmHg 58%
    Mostrar mais